Location: Florence
(33.9745°N, 118.2481°W)
Time: 19:26:33
(UTC+00:00)

Meteor 1-10 Rocket - Pass Details

Date: 23 March 2023
Orbit: 835 x 910 km, 81.3° (Epoch: 05 June)

Event Time Altitude Azimuth Distance (km) Brightness Sun altitude
Rises 12:48:54 0° 190° (S) 3,486 7.2 -14.0°
Reaches altitude 10° 12:51:19 10° 191° (S) 2,559 6.5 -13.5°
Maximum altitude 12:57:10 80° 277° (W) 923 4.3 -12.3°
Drops below altitude 10° 13:03:08 10° 6° (N) 2,600 6.9 -11.1°
Sets 13:05:37 0° 7° (N) 3,546 7.7 -10.6°
